Regional Weather Roundup
Issued by NWS State College, PA

Home | Current Version | Previous Version | Graphics & Text | Print | Product List | Glossary Off
Versions: 1 2 3 4 5 6 7 8 9 10 11 12 13 14 15 16 17 18 19 20 21 22 23 24 25 26 27 28 29 30 31 32 33 34 35 36 37 38 39 40 41 42 43 44 45 46 47 48 49 50

000
ASUS41 KCTP 280603
RWRCTP

REGIONAL WEATHER ROUNDUP
NATIONAL WEATHER SERVICE STATE COLLEGE PA
200 AM EDT SUN MAY 28 2017

Note: "fair" indicates few or no clouds below 12,000 feet with no
significant weather and/or obstructions to visibility.

* = STATION THAT DOES NOT REPORT PRECIPITATION /E.G. RAIN...SNOW...ETC/
    THUNDER OR FOG.

PAZ002>004-007>009-013>016-020>023-029>032-280700-
WESTERN PENNSYLVANIA

CITY           SKY/WX    TMP DP  RH WIND       PRES   REMARKS
ERIE           CLEAR     53  49  86 E5        29.86F
MEADVILLE      CLEAR     55  52  89 VRB3      29.88F
FRANKLIN*      CLEAR     55  50  82 E5        29.89F
NEW CASTLE     FAIR      54  54 100 SW3       29.87F
BEAVER COUNTY  NOT AVBL
BUTLER*        PTCLDY    55  55 100 NE3       29.87F
PITTSBURGH INT PTCLDY    60  59  96 CALM      29.86F FOG
PITTSBURGH     CLOUDY    60  58  92 CALM      29.85F FOG
INDIANA*       CLEAR     55  55 100 CALM      29.90F
LATROBE        FOG       55  55 100 CALM      29.87F VSB<1/4
WASHINGTON CO*   N/A     54  54 100 CALM      29.87F VSB 3/4
$$

PAZ004>006-010>012-017>019-024>028-033>037-041-042-045-046-049>053-280700-
CENTRAL PENNSYLVANIA

CITY           SKY/WX    TMP DP  RH WIND       PRES   REMARKS
BRADFORD       CLEAR     51  51 100 CALM      29.90F
DUBOIS         CLEAR     54  53  97 CALM      29.90R FOG
CLEARFIELD     MOCLDY    54  54 100 CALM      29.89F
JOHNSTOWN      CLEAR     57  56  96 CALM      29.90F FOG
ALTOONA        FOG       59  59 100 W3        29.90F VSB 1/2
STATE COLLEGE  CLEAR     57  56  97 CALM      29.89F
WILLIAMSPORT   CLOUDY    62  57  83 CALM      29.89F
SELINSGROVE    CLEAR     56  56 100 CALM      29.90F FOG
FT INDIANTOWN  CLEAR     55  55 100 CALM      29.90F
CAPITAL CITY   CLEAR     59  55  87 CALM      29.90S
HARRISBURG     PTCLDY    59  58  96 NE3       29.89S
YORK           FOG       56  56 100 CALM      29.88F VSB 1/4
$$

PAZ038>040-043-044-047-048-054-055-060>062-067>071-280700-
EASTERN PENNSYLVANIA

CITY           SKY/WX    TMP DP  RH WIND       PRES   REMARKS
SCRANTON       CLOUDY    61  56  83 E5        29.91F
MOUNT POCONO   CLOUDY    56  55  97 CALM      29.94S
ALLENTOWN      CLEAR     56  53  90 CALM      29.90F
QUAKERTOWN*    CLEAR     54  54 100 CALM      29.92F
READING        CLEAR     56  56 100 CALM      29.89F
LANCASTER      CLOUDY    58  58 100 E3        29.90F FOG
COATESVILLE    PTCLDY    57  57 100 CALM      29.92F FOG
POTTSTOWN      CLEAR     55  54  96 CALM      29.92F
BLUE BELL      CLOUDY    55  55 100 CALM      29.92S
DOYLESTOWN     CLEAR     55  55 100 S3        29.90S
WILLOW GROVE   NOT AVBL
NORTH PHILA    CLOUDY    67  60  78 CALM      29.91S
PHILADELPHIA   MOCLDY    64  60  87 CALM      29.91S
$$



USA.gov is the U.S. government's official web portal to all federal, state and local government web resources and services.